www.pogodaiklimat.ru

Погода и климат >> Архив погоды >> Швейцария >> Payerne


ПОГОДА в Payerne

  • Прогноз погоды в Payerne
  • Монитор погоды в Payerne
  • Климат города

АРХИВ ПОГОДЫ в Payerne

Время (UTC), дата Ветер
(напр.,м/с)
 
Видим.   Явления Облачность Т
(С)
Тd
(С)
f
(%)
Тe
(С)
Тes
(С)
Комфортность P
(гПа)
Po
(гПа)
Тmin
(С)
Tmax
(С)
R
(мм)
R24
(мм)
S
(см)
22 11.12 ЮЗ 5
{8}
н/о н/о +3.9 +1.8 86 -1 -1 995.0 937.1
23 11.12 ЮЗ 3
{8}
н/о н/о +3.6 +2.0 89 -0 -0 996.2 938.2
00 12.12 ЮЗ 6
{10}
18 км {дождь} 6/5 1110 м
[Sc Ac lent]
+4.7 +2.1 83 -0 -0 997.3 939.4
01 12.12 ЮЗ 7
{14}
н/о н/о +4.6 +2.0 83 -1 -1 999.1 941.1 0.5
02 12.12 ЮЗ 7
{12}
н/о н/о +3.1 -0.1 79 -3 -3 1001.8 943.3 0.3
03 12.12 ЮЗ 4
{14}
н/о н/о +2.6 -0.4 81 -2 -2 1003.8 945.1
04 12.12 ЮЗ 3
{7}
н/о н/о +2.3 -1.2 78 -1 -1 1005.4 946.6
05 12.12 ЮЗ 3
{5}
н/о н/о +2.0 -0.8 82 -2 -2 1007.0 948.0
06 12.12 З 4 18 км {дождь} 10/10 600 м
[Sc]
+1.7 -1.1 82 -3 -3 1008.8 949.6 +1.8
07 12.12 ЮЗ 2
{4}
н/о н/о +1.5 -1.0 83 -2 -2 1010.4 951.1
08 12.12 Ю 2
{5}
н/о н/о +0.5 -0.2 95 -3 -3 1012.3 952.7 0.4
09 12.12 Ю 2
{5}
4000 м слабый снег 10/10 600 м
[St]
+0.7 -0.2 94 -3 -3 1013.4 953.7 0.5
10 12.12 ЮЗ 2
{5}
н/о н/о +0.8 -0.1 94 -2 -2 1014.3 954.6
11 12.12 ЮЗ 2
{5}
н/о н/о +1.8 +0.4 90 -2 -2 1014.4 954.9
12 12.12 ЮЗ 2
{5}
16 км {снег} 10/10 1500 м
[Sc]
+2.5 -0.1 83 -1 -1 1014.5 955.2
13 12.12 ЮЗ 2
{4}
н/о н/о +2.5 +0.5 87 -1 -1 1015.2 955.8
14 12.12 ЮЗ 3
{6}
н/о н/о +2.8 +0.5 85 -1 -1 1015.9 956.5
15 12.12 Ю 3
{6}
н/о н/о +2.5 -0.8 79 -2 -2 1016.8 957.3
16 12.12 ЮЗ 2
{5}
н/о н/о +1.4 -0.4 88 -1 -1 1018.0 958.2
17 12.12 Ю 2
{3}
н/о н/о +0.8 -0.8 89 -2 -2 1018.9 958.9
18 12.12 Ю 2 25 км 3/3 1200 м
[Sc]
+0.6 -0.8 90 -2 -2 1019.6 959.6 +2.9
19 12.12 Ю 2
{3}
н/о н/о -0.6 -1.8 92 -5 -5 1020.8 960.4
20 12.12 Ю 2
{3}
н/о н/о -0.6 -1.8 92 -5 -5 1020.8 960.4
21 12.12 Ю 2
{4}
20 км 3/3 1200 м
[Sc]
-0.6 -2.4 88 -4 -4 1021.5 961.1
22 12.12 ЮЗ 2
{3}
н/о н/о -1.5 -2.4 94 -5 -5 1021.9 961.3
23 12.12 ЮЗ 1
{4}
н/о н/о -1.4 -2.4 93 -4 -4 1021.7 961.1
00 13.12 Ю 2
{4}
25 км ясно -1.6 -2.4 94 -5 -5 1022.3 961.6
01 13.12 Ю 2
{3}
н/о н/о -1.3 -2.6 91 -5 -5 1022.4 961.8
02 13.12 Ю 2
{3}
н/о н/о -2.1 -3.0 94 -6 -6 1022.5 961.7
03 13.12 Ю 2
{4}
н/о н/о -2.5 -3.1 96 -6 -6 1022.7 961.8
04 13.12 Ю 1
{2}
н/о н/о -2.6 -3.3 95 -3 -3 1022.7 961.8
05 13.12 З 1
{1}
н/о н/о -3.9 -4.3 97 -5 -5 1022.6 961.4
06 13.12 Ю 1 25 км ясно -3.2 -4.0 94 -6 -6 1022.1 961.1 -3.9
07 13.12 Ю 2
{2}
н/о н/о -4.4 -5.2 94 -8 -8 1022.4 961.1
08 13.12 ЮЗ 2
{4}
н/о н/о -3.2 -4.5 91 -7 -7 1021.8 960.8
09 13.12 ЮЗ 2
{5}
30 км 1/1 500 м
[Cu med, cong Ac lent Ci fib]
-0.5 -3.1 83 -4 -3 1020.5 960.2
10 13.12 ЮЗ 3
{5}
н/о н/о +0.9 -2.7 77 -3 -3 1019.8 959.8
11 13.12 ЮЗ 4
{7}
н/о н/о +1.4 -3.5 70 -3 -3 1018.1 958.3
12 13.12 ЮЗ 3
{8}
35 км 9/1 420 м
[Frnb As trans]
+1.6 -2.5 74 -3 -2 1016.4 956.8
13 13.12 ЮЗ 5
{10}
н/о н/о +1.8 -3.1 70 -4 -4 1015.3 955.8
14 13.12 ЮЗ 7
{12}
н/о н/о +1.9 -3.0 70 -4 -4 1014.6 955.1
15 13.12 ЮЗ 6
{12}
н/о н/о +2.2 -2.6 71 -4 -4 1014.6 955.2
16 13.12 ЮЗ 5
{10}
н/о н/о +1.4 -0.8 85 -4 -4 1014.5 954.9
17 13.12 ЮЗ 5
{9}
н/о н/о +1.2 -0.4 89 -5 -5 1013.6 954.0 0.1
18 13.12 ЮЗ 5 13 км дымка 10/10 420 м
[Sc]
+1.8 +0.1 88 -4 -4 1012.1 952.8 +2.2
19 13.12 ЮЗ 5
{10}
н/о н/о +2.1 +0.5 89 -3 -3 1010.4 951.2
20 13.12 ЮЗ 7
{12}
н/о н/о +2.8 +0.8 87 -3 -3 1008.2 949.3 0.3
21 13.12 ЮЗ 6
{13}
2000 м дождь 10/0 300 м
[As op]
+2.8 +1.2 89 -3 -3 1007.6 948.7 0.7
22 13.12 ЮЗ 6
{14}
н/о н/о +3.2 +1.5 89 -3 -3 1006.9 948.2
23 13.12 ЮЗ 8
{14}
н/о н/о +4.1 +2.2 87 -2 -2 1006.0 947.5
00 14.12 ЮЗ 8
{16}
2000 м слабый дождь 10/10 420 м
[Frnb]
+5.2 +3.3 88 -1 -1 1005.4 947.2 0.2
01 14.12 ЮЗ 9
{17}
н/о н/о +6.3 +3.7 83 +1 +1 1005.4 947.4 0.1
02 14.12 ЮЗ 7
{19}
н/о н/о +6.2 +4.1 86 +1 +1 1005.6 947.6
03 14.12 ЮЗ 8
{19}
н/о н/о +6.0 +4.4 89 +1 +1 1005.8 947.7 0.3
04 14.12 ЮЗ 8
{20}
н/о н/о +6.3 +3.7 83 +1 +1 1006.9 948.8 2
05 14.12 ЮЗ 10
{20}
н/о н/о +6.5 +1.3 69 +1 +1 1006.5 948.5
06 14.12 ЮЗ 9 18 км {дождь} 10/10 1000 м
[Frnb]
+6.3 +3.1 80 +1 +1 1007.0 948.9 +1.7
07 14.12 ЮЗ 8
{14}
н/о н/о +6.1 +3.7 85 +1 +1 1008.0 949.8 0.4
08 14.12 З 4
{15}
н/о н/о +5.3 +3.6 89 +1 +1 1008.3 949.9 2
09 14.12 ЮЗ 9
{15}
16 км {дождь} 10/10 1020 м
[Frnb]
+6.3 +1.0 69 +1 +1 1007.5 949.4 0.1
10 14.12 ЮЗ 8
{14}
н/о н/о +5.5 +0.8 72 0 0 1008.6 950.2
11 14.12 ЮЗ 7
{14}
н/о н/о +5.0 +1.6 79 -1 -1 1008.0 949.6 0.1
12 14.12 ЮЗ 8
{15}
16 км {дождь} 10/10 1110 м
[Frnb]
+5.3 +0.8 73 -0 -0 1007.4 949.1
13 14.12 ЮЗ 4
{12}
н/о н/о +4.8 +1.9 81 +1 +1 1006.2 947.8
14 14.12 ЮЗ 4
{12}
н/о н/о +4.8 +2.5 85 +1 +1 1005.1 946.8 0.3
15 14.12 Ю 4
{12}
н/о н/о +4.0 +2.4 89 -1 -1 1004.3 945.9 1
16 14.12 Ю 2
{8}
н/о н/о +3.7 +3.0 95 +1 +1 1003.2 944.8 2
17 14.12 З 6
{15}
н/о н/о +5.7 +3.1 83 +1 +1 1001.0 943.1 4
18 14.12 ЮЗ 8 4000 м дождь 10/10 420 м
[Frnb]
+6.4 +3.9 84 +1 +1 998.4 940.8 +6.6 0.5
19 14.12 З 8
{19}
н/о н/о +5.6 +3.3 85 0 0 1000.0 942.2 2
20 14.12 З 7
{16}
н/о н/о +4.1 +2.5 89 -2 -2 999.9 941.8 7
21 14.12 З 6
{19}
1000 м сильный дождь 10/0 300 м
[As op]
+4.5 +2.5 87 -1 -1 998.8 940.8 5
22 14.12 З 10
{20}
н/о н/о +4.4 +2.1 85 -2 -2 998.5 940.5 8
23 14.12 З 6
{17}
н/о н/о +5.6 +3.4 86 +1 +1 997.5 939.8 4
00 15.12 З 6
{22}
1000 м сильный дождь 10/0 210 м
[As op]
+3.2 +1.4 88 -3 -3 999.8 941.5 6
01 15.12 ЮЗ 8
{13}
н/о н/о +3.7 -0.4 75 -2 -2 999.8 941.6 0.1
02 15.12 ЮЗ 7
{14}
н/о н/о +3.8 -0.8 72 -2 -2 1000.8 942.5
03 15.12 ЮЗ 5
{14}
н/о н/о +3.4 +0.1 79 -2 -2 1002.0 943.6
04 15.12 ЮЗ 5
{11}
н/о н/о +3.1 -0.8 76 -2 -2 1002.1 943.6
05 15.12 ЮЗ 5
{10}
н/о н/о +2.5 +0.3 85 -3 -3 1003.3 944.6
06 15.12 ЮЗ 5 10 км слабый дождь 8/8 300 м
[Frnb]
+2.0 -0.2 85 -4 -4 1003.6 944.8 +2.2 0.1
07 15.12 З 2
{10}
н/о н/о +1.6 -0.4 87 -2 -2 1003.4 944.5
08 15.12 ЮЗ 3
{6}
н/о н/о +2.5 -0.8 79 -2 -2 1003.4 944.7
09 15.12 ЮЗ 5
{10}
7000 м дымка {дождь} 8/8 300 м
[Frnb Ci fib]
+3.8 -0.8 72 -1 -1 1003.2 944.8
10 15.12 ЮЗ 6
{11}
н/о н/о +3.8 -0.3 75 -2 -2 1003.7 945.3
11 15.12 ЮЗ 6
{11}
н/о н/о +5.4 -0.9 64 +1 +1 1003.2 945.1
12 15.12 ЮЗ 7
{12}
8000 м мгла {дождь} 8/8 300 м
[Frnb]
+5.6 -0.3 66 +1 +1 1002.9 944.9
13 15.12 ЮЗ 7
{13}
н/о н/о +3.4 +0.4 81 -3 -3 1003.2 944.7
14 15.12 ЮЗ 6
{11}
н/о н/о +5.3 -1.5 61 +1 +1 1001.9 943.9
15 15.12 ЮЗ 4
{13}
н/о н/о +4.5 -0.8 68 0 0 1002.3 944.1
16 15.12 ЮЗ 3
{9}
н/о н/о +2.9 -0.4 79 -1 -1 1002.4 943.9
17 15.12 ЮЗ 3
{6}
н/о н/о +2.8 -1.2 75 -1 -1 1002.0 943.5
18 15.12 Ю 2 10 км дымка 9/9 1200 м
[Sc]
+2.7 -1.3 75 0 0 1002.2 943.6 +5.6
19 15.12 В 1
{2}
н/о н/о +1.9 -1.1 80 +2 +2 1002.6 943.8
20 15.12 З 3
{6}
н/о н/о +2.2 -0.8 81 -2 -2 1003.3 944.6
21 15.12 Ю 4
{8}
14 км слабый дождь 10/10 1200 м
[Frnb]
+1.8 +0.3 90 -3 -3 1003.4 944.6 0.3
22 15.12 С 1
{6}
н/о н/о +1.3 +0.2 92 -1 -1 1003.5 944.6
23 15.12 З 1
{2}
н/о н/о +1.0 +0.1 94 0 0 1004.1 945.1 0.2
00 16.12 ЮЗ 3
{8}
8000 м в посл. час дождь со снегом 9/9 300 м
[Frnb]
+1.4 +0.3 92 -3 -3 1004.2 945.2 0.2
01 16.12 ЮЗ 2
{3}
н/о н/о +1.5 +0.1 90 -2 -2 1004.7 945.7
02 16.12 З 2
{3}
н/о н/о +1.2 +0.2 93 -2 -2 1005.6 946.5
03 16.12 ЮЗ 2
{3}
н/о н/о +1.2 +0.1 92 -2 -2 1006.1 947.0 0.1
04 16.12 ЮЗ 2
{4}
н/о н/о +1.4 +0.2 92 -2 -2 1006.9 947.8
05 16.12 ЮЗ 3
{6}
н/о н/о +1.6 -0.1 88 -3 -3 1007.6 948.5
06 16.12 Ю 4 12 км слабый дождь 10/10 600 м
[St]
+1.6 -0.3 87 -3 -3 1008.9 949.7 +0.7
07 16.12 ЮЗ 3
{6}
н/о н/о +1.6 -0.2 88 -3 -3 1010.1 950.8
08 16.12 ЮЗ 3
{5}
н/о н/о +2.0 -0.7 82 -2 -2 1011.0 951.8
09 16.12 ЮЗ 4
{6}
20 км {дождь} 10/10 1020 м
[Sc]
+2.1 -0.5 83 -3 -3 1012.3 953.0
10 16.12 ЮЗ 3
{5}
н/о н/о +2.2 -0.8 81 -2 -2 1013.3 954.0
11 16.12 ЮЗ 4
{7}
н/о н/о +2.5 -1.0 78 -2 -2 1014.1 954.8
12 16.12 ЮЗ 4
{7}
14 км мгла {дождь} 9/9 1110 м
[Sc]
+2.8 -1.1 75 -2 -2 1014.7 955.4
13 16.12 ЮЗ 4
{7}
н/о н/о +2.9 -0.4 79 -1 -1 1015.3 956.0
14 16.12 ЮЗ 3
{6}
н/о н/о +2.9 -0.8 77 -1 -1 1016.0 956.7
15 16.12 ЮЗ 2
{7}
н/о н/о +3.0 -0.5 78 0 0 1016.9 957.5
16 16.12 З 2
{5}
н/о н/о +2.7 -2.8 67 +1 +1 1017.7 958.2
17 16.12 ЮЗ 2
{4}
н/о н/о +1.7 -1.3 80 -2 -2 1018.8 959.0
18 16.12 ЮЗ 2 14 км слабый снег 10/10 900 м
[Frnb]
+1.6 -1.0 83 -2 -2 1019.8 960.0 +3.2
19 16.12 ЮЗ 2
{5}
н/о н/о +1.5 -1.4 81 -2 -2 1020.5 960.6
20 16.12 Ю 2
{5}
н/о н/о +0.6 -0.4 93 -3 -3 1021.5 961.3 0.1
21 16.12 ЮЗ 2 16 км в посл. час снег 9/3 1200 м
[Frnb Ac As]
+0.3 -1.1 90 -3 -3 1021.7 961.5
22 16.12 Ю 2
{3}
н/о н/о +0.7 -0.9 89 -3 -3 1022.1 961.9
23 16.12 ЮЗ 2
{4}
н/о н/о +0.6 -0.7 91 -3 -3 1022.5 962.3 0.1
00 17.12 ЮЗ 1
{5}
16 км {снег} 10/10 800 м
[St]
+0.5 -0.6 92 -2 -2 1023.0 962.7
01 17.12 Ю 1
{3}
н/о н/о +0.2 -0.7 94 -2 -2 1023.1 962.8 0.1
02 17.12 Ю 1
{3}
н/о н/о -0.1 -3.3 79 -2 -2 1024.0 963.5
03 17.12 ЮЗ 1
{3}
н/о н/о 0.0 -2.5 83 -2 -2 1024.6 964.1
04 17.12 Ю 1
{3}
н/о н/о +0.3 -2.8 80 -2 -2 1024.9 964.5
05 17.12 Ю 2
{3}
н/о н/о -0.2 -3.7 77 -4 -4 1024.8 964.3
06 17.12 Ю 2 18 км 10/10 1000 м
[Sc]
-0.8 -3.4 83 -5 -5 1025.5 964.8 -1.1 1
07 17.12 Ю 3
{5}
н/о н/о -0.9 -4.0 79 -5 -5 1025.9 965.2
08 17.12 Ю 2
{4}
н/о н/о -0.9 -3.5 83 -4 -4 1026.4 965.6
09 17.12 ЮЗ 1
{5}
30 км 9/6 1110 м
[Sc Ac trans]
-0.6 -3.6 80 -3 -2 1027.2 966.4
10 17.12 ЮЗ 2
{4}
н/о н/о -0.1 -3.2 80 -3 -3 1027.5 966.8
11 17.12 Ю 2
{3}
н/о н/о +0.6 -2.7 79 -2 -2 1027.2 966.7
12 17.12 Ю 2
{5}
25 км 10/10 1500 м
[Sc]
+1.2 -2.3 77 -1 -1 1026.9 966.6
13 17.12 ЮЗ 2
{3}
н/о н/о +1.8 -2.5 73 -1 -1 1026.8 966.6
14 17.12 ЮЗ 2
{3}
н/о н/о +1.8 -2.8 71 -1 -1 1026.8 966.6
15 17.12 ЮЗ 1
{3}
н/о н/о +0.9 -2.5 78 +1 +1 1027.5 967.1
16 17.12 ЮВ 1
{1}
н/о н/о +0.8 -2.5 79 0 0 1028.2 967.7
17 17.12 ЮЗ 1
{2}
н/о н/о +0.6 -2.1 82 -1 -1 1029.3 968.7
18 17.12 Ю 1 30 км 10/10 900 м
[Sc]
+0.7 -2.0 82 -1 -1 1029.7 969.1 +2.0
19 17.12 Ю 2
{3}
н/о н/о +0.2 -1.8 86 -3 -3 1029.8 969.1
20 17.12 ЮЗ 2
{4}
н/о н/о -0.1 -2.4 84 -3 -3 1030.1 969.3
21 17.12 Ю 2
{4}
28 км 6/0
[As trans Ci fib]
-1.0 -2.9 87 -5 -5 1030.5 969.5
22 17.12 Ю 4
{4}
н/о н/о -1.3 -3.4 86 -7 -7 1030.7 969.6
23 17.12 Ю 3
{4}
н/о н/о -1.9 -3.9 86 -7 -7 1030.8 969.5
00 18.12 ЮЗ 3
{5}
27 км 9/0
[As trans]
-1.4 -4.6 79 -6 -6 1030.0 968.9
01 18.12 ЮЗ 3
{6}
н/о н/о -1.5 -4.7 79 -6 -6 1029.6 968.5
02 18.12 ЮЗ 3
{5}
н/о н/о -1.3 -4.8 77 -6 -6 1029.2 968.2
03 18.12 ЮЗ 3
{6}
н/о н/о -0.7 -4.2 77 -5 -5 1028.6 967.7
04 18.12 ЮЗ 5
{7}
н/о н/о -0.2 -4.3 74 -6 -6 1027.3 966.6
05 18.12 ЮЗ 5
{9}
н/о н/о -1.2 -2.4 92 -7 -7 1027.2 966.3
06 18.12 ЮЗ 4 600 м снег ?/? -1.4 -2.4 93 -7 -7 1026.2 965.3 -1.9 0.3 2
07 18.12 ЮЗ 4
{7}
н/о н/о -1.4 -3.0 89 -7 -7 1024.9 964.1
08 18.12 ЮЗ 5
{9}
н/о н/о -1.1 -2.5 90 -8 -8 1024.2 963.5
09 18.12 ЮЗ 4
{9}
3000 м снег ?/? -0.6 -2.2 89 -6 -6 1024.1 963.5
10 18.12 ЮЗ 2
{7}
н/о н/о -0.3 -1.7 90 -4 -4 1024.3 963.8 0.1
11 18.12 ЮЗ 4
{5}
н/о н/о +0.4 -2.0 84 -5 -5 1024.2 963.8
12 18.12 ЮЗ 3
{9}
8000 м дымка {снег} 9/9 1200 м
[Sc]
+1.0 -2.2 79 -3 -3 1023.9 963.7
13 18.12 ЮЗ 2
{3}
н/о н/о +1.1 -2.0 80 -2 -2 1023.9 963.7
14 18.12 СЗ 1
{5}
н/о н/о +1.5 -1.6 80 -0 -0 1023.8 963.7
15 18.12 СВ 1
{5}
н/о н/о +1.2 -1.4 83 -1 -1 1025.4 965.1
16 18.12 СВ 1
{2}
н/о н/о -0.3 -1.9 89 -2 -2 1026.0 965.4
17 18.12 В 1
{2}
н/о н/о -3.0 -3.0 100 -4 -4 1027.1 965.8
18 18.12 В 1 14 км дымка 1/1 300 м
[St]
-2.0 -2.6 96 -3 -3 1027.9 966.8 +1.6
19 18.12 штиль 0
{2}
н/о н/о -0.7 -1.8 92 -2 -2 1028.7 967.8
20 18.12 штиль 0
{1}
н/о н/о -1.8 -2.9 92 -3 -3 1029.7 968.5
21 18.12 В 1
{2}
3000 м дымка 10/10 210 м
[St]
-2.9 -3.6 95 -5 -5 1030.4 968.9

 

Местоположение метеостанции Payerne (Швейцария): широта 46.82 долгота 6.95 высота над уровнем моря 491 м.

В архиве по умолчанию представлена погода в Payerne за последнюю неделю. Архивные данные за месяц целиком и за предыдущие месяцы, начиная с января 2011 года, Вы можете получить, выбрав интересующий диапазон дат из раскрывающегося списка и нажав кнопку "Ввод!".

Внимание! Время в таблицах - всемирное. Для получения местного времени необходимо прибавить поправку, которая в Payerne равна 1 ч.

Смотрите также архив погоды в соседних городах и на ближайших метеорологических станциях:

Погода в Neuchatel (Швейцария) (20 км)
Погода в Fribourg Posieux (Швейцария) (21 км)
Погода в Plaffeien-Oberschrot (Швейцария) (26 км)
Погода в Cressier (Швейцария) (27 км)
Погода в La Fretaz (Швейцария) (28 км)
Погода в Oron (Швейцария) (28 км)
Погода в Mathod (Швейцария) (29 км)
Погода в Moleson (Швейцария) (31 км)
Погода в La Brevine (Швейцария) (31 км)
Погода в Muehleberg (Швейцария) (31 км)

Пояснения к столбцам:

Ветер - указаны скорость ветра в м/с - средняя за 10 мин, порывы в срок и между сроками (в фигурных скобках) и направление, откуда дует ветер: С - северный, СВ - северо-восточный, В - восточный, ЮВ - юго-восточный, Ю - южный, ЮЗ - юго-западный, З - западный, СЗ - северо-западный.
Видимость - горизонтальная дальность видимости в метрах или километрах. При видимости от 1 до 10 км при отсутствии осадков обычно наблюдается дымка, при ухудшении видимости до 1 км и менее - туман. В сухую погоду видимость может ухудшаться дымом, пылью или мглою.
Явления - указаны атмосферные явления, наблюдавшиеся в срок или в последний час перед сроком; фигурными скобками обозначены явления, наблюдавшиеся между сроками (за 1-3 часа до срока); квадратными скобками обозначены град или гололедные отложения с указанием их диаметра в мм.
Облачность - указаны через наклонную черту общая и нижняя облачность в баллах и высота нижней границы облаков в метрах; квадратными скобками обозначены формы облаков: Ci - перистые, Cs - перисто-слоистые, Cc - перисто-кучевые, Ac - высококучевые, As - высокослоистые, Sc - слоисто-кучевые, Ns - слоисто-дождевые, Cu - кучевые, Cb - кучево-дождевые. Подробнее классификацию облаков см. в Атласе облаков (PDF).
T - Температура воздуха - температура, измеренная на высоте 2 м над землей.
Td - Температура точки росы - температура, при понижении до которой содержащийся в воздухе водяной пар достигнет насыщения.
f - Относительная влажность воздуха - влажноcть воздуха, измеренная на высоте 2 м над землей.
Te - Эффективная температура - температура, которую ощущает одетый по сезону человек в тени. Характеристика душности погоды. При расчете учитывается влияние влажности воздуха и скорости ветра на теплоощущения человека.
Tes - Эффективная температура на солнце - температура, которую ощущает человек, с поправкой на солнечный нагрев. Характеристика знойности погоды. Зависит от высоты солнца над горизонтом, облачности и скорости ветра. Ночью, в пасмурную погоду, а также при ветре 12 м/с и более поправка равна нулю.
P - Атмосферное давление - приведенное к уровню моря атмосферное давление.
Po - Атмосферное давление - измеренное на уровне метеостанции атмосферное давление.
Tmin - Минимальная температура - минимум температуры воздуха на высоте 2 м над землей.
Tmax - Максимальная температура - максимум температуры воздуха на высоте 2 м над землей.
R - Количество осадков - Количество выпавших осадков за период времени, мм. При наведении курсора мыши на число - период времени, за который выпало указанное количество осадков.
R24 - Количество осадков - Количество выпавших осадков за 24 часа, мм.
S - Снежный покров - Высота снежного покрова, см. При наведении курсора мыши на число - состояние снежного покрова и степень покрытия местности в баллах.